| time (UTC) | temp F | wind direction | speed MPH | gust MPH | rain 1hr in | rain 24hr in | rain mn in | humidity % | barometer mb |
| 20260504010238 | 53 | 145 | 2.0 | 3.0 | 0.00 | 0.00 | 0.00 | 51 | 1012.8 |
| 20260504005735 | 53 | 140 | 1.0 | 3.0 | 0.00 | 0.00 | 0.00 | 49 | 1012.9 |
| 20260504005232 | 54 | 137 | 1.0 | 2.0 | 0.00 | 0.00 | 0.00 | 47 | 1012.9 |
| 20260504004729 | 54 | 150 | 0.0 | 3.0 | 0.00 | 0.00 | 0.00 | 48 | 1012.7 |
| 20260504004226 | 55 | 136 | 2.0 | 3.0 | 0.00 | 0.00 | 0.00 | 47 | 1012.8 |
| 20260504003723 | 55 | 134 | 1.0 | 2.0 | 0.00 | 0.00 | 0.00 | 45 | 1012.8 |
| 20260504003220 | 56 | 161 | 1.0 | 3.0 | 0.00 | 0.00 | 0.00 | 44 | 1012.9 |
| 20260504002717 | 56 | 169 | 2.0 | 10.0 | 0.00 | 0.00 | 0.00 | 43 | 1013.0 |
| 20260504002214 | 56 | 133 | 2.0 | 7.0 | 0.00 | 0.00 | 0.00 | 43 | 1012.9 |
| 20260504001712 | 56 | 257 | 4.0 | 4.0 | 0.00 | 0.00 | 0.00 | 42 | 1012.8 |
| 20260504001208 | 57 | 218 | 1.0 | 3.0 | 0.00 | 0.00 | 0.00 | 44 | 1012.9 |
| 20260504000705 | 57 | 201 | 0.0 | 3.0 | 0.00 | 0.00 | 0.00 | 43 | 1012.7 |
| 20260504000204 | 57 | 140 | 6.0 | 16.0 | 0.00 | 0.00 | 0.00 | 41 | 1012.9 |
| 20260503235700 | 57 | 116 | 3.0 | 4.0 | 0.00 | 0.00 | 0.00 | 42 | 1012.8 |
| 20260503235157 | 57 | 62 | 1.0 | 2.0 | 0.00 | 0.00 | 0.00 | 44 | 1012.8 |
| 20260503234655 | 57 | 185 | 2.0 | 3.0 | 0.00 | 0.00 | 0.00 | 42 | 1012.9 |
| 20260503234153 | 57 | 208 | 3.0 | 8.0 | 0.00 | 0.00 | 0.00 | 43 | 1012.8 |
| 20260503233649 | 57 | 174 | 2.0 | 3.0 | 0.00 | 0.00 | 0.00 | 42 | 1012.9 |
| 20260503233145 | 57 | 192 | 0.0 | 5.0 | 0.00 | 0.00 | 0.00 | 43 | 1013.0 |
| 20260503232642 | 58 | 120 | 3.0 | 6.0 | 0.00 | 0.00 | 0.00 | 41 | 1013.0 |
| 20260503232139 | 58 | 216 | 1.0 | 3.0 | 0.00 | 0.00 | 0.00 | 40 | 1013.0 |
| 20260503231638 | 58 | 218 | 2.0 | 7.0 | 0.00 | 0.00 | 0.00 | 40 | 1013.0 |
| 20260503231133 | 58 | 263 | 2.0 | 6.0 | 0.00 | 0.00 | 0.00 | 40 | 1013.0 |
| 20260503230630 | 58 | 180 | 2.0 | 3.0 | 0.00 | 0.00 | 0.00 | 42 | 1013.1 |
| 20260503230128 | 58 | 272 | 4.0 | 6.0 | 0.00 | 0.00 | 0.00 | 39 | 1013.1 |
| 20260503225625 | 58 | 123 | 1.0 | 5.0 | 0.00 | 0.00 | 0.00 | 40 | 1013.0 |
| 20260503225124 | 58 | 248 | 4.0 | 6.0 | 0.00 | 0.00 | 0.00 | 40 | 1013.1 |
| 20260503224622 | 58 | 294 | 2.0 | 9.0 | 0.00 | 0.00 | 0.00 | 41 | 1013.3 |
| 20260503224120 | 58 | 165 | 5.0 | 5.0 | 0.00 | 0.00 | 0.00 | 41 | 1013.2 |
| 20260503223618 | 58 | 211 | 5.0 | 8.0 | 0.00 | 0.00 | 0.00 | 41 | 1013.1 |
| 20260503223113 | 59 | 131 | 2.0 | 6.0 | 0.00 | 0.00 | 0.00 | 39 | 1013.4 |
| 20260503222611 | 59 | 132 | 1.0 | 9.0 | 0.00 | 0.00 | 0.00 | 40 | 1013.0 |
| 20260503222109 | 59 | 276 | 4.0 | 6.0 | 0.00 | 0.00 | 0.00 | 39 | 1013.1 |
| 20260503221607 | 59 | 223 | 4.0 | 9.0 | 0.00 | 0.00 | 0.00 | 40 | 1013.2 |
| 20260503221104 | 59 | 189 | 2.0 | 6.0 | 0.00 | 0.00 | 0.00 | 39 | 1013.3 |
| 20260503220600 | 59 | 179 | 0.0 | 8.0 | 0.00 | 0.00 | 0.00 | 39 | 1013.2 |
| 20260503220058 | 59 | 177 | 1.0 | 5.0 | 0.00 | 0.00 | 0.00 | 40 | 1013.1 |
| 20260503215555 | 59 | 266 | 4.0 | 8.0 | 0.00 | 0.00 | 0.00 | 40 | 1013.4 |
| 20260503215051 | 59 | 266 | 7.0 | 7.0 | 0.00 | 0.00 | 0.00 | 39 | 1013.2 |
| 20260503214549 | 59 | 260 | 3.0 | 7.0 | 0.00 | 0.00 | 0.00 | 38 | 1013.2 |
| 20260503214046 | 59 | 235 | 5.0 | 6.0 | 0.00 | 0.00 | 0.00 | 39 | 1013.1 |
| 20260503213544 | 59 | 247 | 5.0 | 8.0 | 0.00 | 0.00 | 0.00 | 37 | 1013.2 |
| 20260503213041 | 59 | 238 | 4.0 | 5.0 | 0.00 | 0.00 | 0.00 | 38 | 1013.0 |
| 20260503212538 | 59 | 261 | 2.0 | 6.0 | 0.00 | 0.00 | 0.00 | 40 | 1013.2 |
| 20260503212036 | 60 | 186 | 2.0 | 6.0 | 0.00 | 0.00 | 0.00 | 39 | 1013.1 |
| 20260503211532 | 61 | 250 | 4.0 | 6.0 | 0.00 | 0.00 | 0.00 | 38 | 1012.9 |
| 20260503211028 | 60 | 237 | 6.0 | 14.0 | 0.00 | 0.00 | 0.00 | 38 | 1013.1 |
| 20260503210525 | 61 | 186 | 2.0 | 11.0 | 0.00 | 0.00 | 0.00 | 37 | 1012.9 |
| 20260503210021 | 61 | 241 | 5.0 | 7.0 | 0.00 | 0.00 | 0.00 | 38 | 1013.1 |
| 20260503205518 | 61 | 232 | 7.0 | 9.0 | 0.00 | 0.00 | 0.00 | 36 | 1013.1 |
| 20260503205014 | 60 | 154 | 6.0 | 8.0 | 0.00 | 0.00 | 0.00 | 37 | 1013.1 |
| 20260503204511 | 60 | 131 | 6.0 | 6.0 | 0.00 | 0.00 | 0.00 | 38 | 1013.1 |
| 20260503204008 | 60 | 210 | 2.0 | 8.0 | 0.00 | 0.00 | 0.00 | 36 | 1013.2 |
| 20260503203505 | 60 | 359 | 2.0 | 4.0 | 0.00 | 0.00 | 0.00 | 37 | 1013.2 |
| 20260503203001 | 61 | 202 | 3.0 | 5.0 | 0.00 | 0.00 | 0.00 | 38 | 1013.2 |
| 20260503202500 | 60 | 256 | 1.0 | 9.0 | 0.00 | 0.00 | 0.00 | 36 | 1013.2 |
| 20260503201958 | 60 | 282 | 2.0 | 5.0 | 0.00 | 0.00 | 0.00 | 38 | 1013.4 |
| 20260503201455 | 59 | 298 | 3.0 | 6.0 | 0.00 | 0.00 | 0.00 | 36 | 1013.7 |
| 20260503200952 | 60 | 217 | 4.0 | 8.0 | 0.00 | 0.00 | 0.00 | 38 | 1013.7 |
| 20260503200449 | 61 | 173 | 2.0 | 7.0 | 0.00 | 0.00 | 0.00 | 38 | 1013.6 |
| 20260503195945 | 61 | 252 | 4.0 | 9.0 | 0.00 | 0.00 | 0.00 | 35 | 1013.5 |
| 20260503195443 | 61 | 245 | 3.0 | 11.0 | 0.00 | 0.00 | 0.00 | 34 | 1013.7 |
| 20260503194939 | 62 | 235 | 6.0 | 6.0 | 0.00 | 0.00 | 0.00 | 36 | 1013.8 |
| 20260503194437 | 61 | 220 | 7.0 | 12.0 | 0.00 | 0.00 | 0.00 | 35 | 1013.9 |
| 20260503193931 | 60 | 238 | 5.0 | 5.0 | 0.00 | 0.00 | 0.00 | 36 | 1013.9 |
| 20260503193427 | 60 | 198 | 3.0 | 8.0 | 0.00 | 0.00 | 0.00 | 36 | 1014.0 |
| 20260503192923 | 60 | 243 | 1.0 | 6.0 | 0.00 | 0.00 | 0.00 | 36 | 1014.0 |
| 20260503192420 | 61 | 311 | 2.0 | 5.0 | 0.00 | 0.00 | 0.00 | 38 | 1014.1 |
| 20260503191915 | 61 | 221 | 3.0 | 8.0 | 0.00 | 0.00 | 0.00 | 36 | 1014.1 |
| 20260503191413 | 60 | 277 | 4.0 | 6.0 | 0.00 | 0.00 | 0.00 | 38 | 1014.3 |
| 20260503190909 | 60 | 322 | 2.0 | 9.0 | 0.00 | 0.00 | 0.00 | 38 | 1014.4 |
| 20260503190407 | 61 | 253 | 6.0 | 7.0 | 0.00 | 0.00 | 0.00 | 35 | 1014.6 |
| 20260503185903 | 62 | 257 | 4.0 | 9.0 | 0.00 | 0.00 | 0.00 | 35 | 1014.6 |
| 20260503185400 | 62 | 238 | 4.0 | 6.0 | 0.00 | 0.00 | 0.00 | 39 | 1014.6 |
| 20260503184859 | 62 | 288 | 4.0 | 7.0 | 0.00 | 0.00 | 0.00 | 36 | 1014.6 |
| 20260503184356 | 61 | 324 | 3.0 | 10.0 | 0.00 | 0.00 | 0.00 | 37 | 1014.5 |
| 20260503183852 | 60 | 244 | 6.0 | 10.0 | 0.00 | 0.00 | 0.00 | 37 | 1014.6 |
| 20260503183349 | 60 | 322 | 3.0 | 4.0 | 0.00 | 0.00 | 0.00 | 38 | 1015.1 |
| 20260503182846 | 61 | 284 | 5.0 | 8.0 | 0.00 | 0.00 | 0.00 | 36 | 1015.0 |
| 20260503182345 | 61 | 272 | 5.0 | 7.0 | 0.00 | 0.00 | 0.00 | 37 | 1015.1 |
| 20260503181842 | 61 | 298 | 3.0 | 8.0 | 0.00 | 0.00 | 0.00 | 34 | 1015.0 |
| 20260503181339 | 59 | 253 | 4.0 | 6.0 | 0.00 | 0.00 | 0.00 | 39 | 1015.1 |
| 20260503180836 | 60 | 188 | 0.0 | 10.0 | 0.00 | 0.00 | 0.00 | 37 | 1015.1 |
| 20260503180334 | 60 | 244 | 3.0 | 12.0 | 0.00 | 0.00 | 0.00 | 36 | 1015.1 |
| 20260503175830 | 60 | 194 | 5.0 | 8.0 | 0.00 | 0.00 | 0.00 | 38 | 1015.2 |
| 20260503175328 | 60 | 180 | 2.0 | 6.0 | 0.00 | 0.00 | 0.00 | 39 | 1015.0 |
| 20260503174823 | 59 | 250 | 8.0 | 9.0 | 0.00 | 0.00 | 0.00 | 42 | 1015.3 |
| 20260503174322 | 59 | 258 | 5.0 | 8.0 | 0.00 | 0.00 | 0.00 | 42 | 1015.1 |
| 20260503173817 | 59 | 168 | 11.0 | 17.0 | 0.00 | 0.00 | 0.00 | 38 | 1015.4 |
| 20260503173313 | 59 | 197 | 3.0 | 11.0 | 0.00 | 0.00 | 0.00 | 39 | 1015.6 |
| 20260503172810 | 58 | 249 | 6.0 | 12.0 | 0.00 | 0.00 | 0.00 | 39 | 1015.7 |
| 20260503172308 | 59 | 259 | 9.0 | 10.0 | 0.00 | 0.00 | 0.00 | 40 | 1015.7 |
| 20260503171803 | 58 | 302 | 4.0 | 6.0 | 0.00 | 0.00 | 0.00 | 40 | 1015.7 |
| 20260503171300 | 58 | 176 | 6.0 | 13.0 | 0.00 | 0.00 | 0.00 | 39 | 1016.1 |
| 20260503170758 | 59 | 265 | 4.0 | 9.0 | 0.00 | 0.00 | 0.00 | 40 | 1016.0 |
| 20260503170254 | 59 | 200 | 3.0 | 10.0 | 0.00 | 0.00 | 0.00 | 41 | 1015.9 |
| 20260503160217 | 56 | 305 | 4.0 | 11.0 | 0.00 | 0.00 | 0.00 | 44 | 1016.4 |
| 20260503150647 | 54 | 144 | 4.0 | 7.0 | 0.00 | 0.00 | 0.00 | 41 | 1017.0 |
| 20260503150143 | 53 | 230 | 4.0 | 7.0 | 0.00 | 0.00 | 0.00 | 40 | 1016.9 |
| 20260503140107 | 51 | 249 | 2.0 | 4.0 | 0.00 | 0.00 | 0.00 | 47 | 1017.0 |
| 20260503131036 | 46 | 168 | 2.0 | 5.0 | 0.00 | 0.00 | 0.00 | 56 | 1017.3 |
| 20260503130533 | 46 | 202 | 2.0 | 9.0 | 0.00 | 0.00 | 0.00 | 55 | 1017.2 |
| 20260503110424 | 35 | 112 | 3.0 | 3.0 | 0.00 | 0.02 | 0.02 | 85 | 1016.9 |
| 20260503090321 | 35 | 106 | 2.0 | 3.0 | 0.00 | 0.02 | 0.02 | 86 | 1016.4 |
| 20260503081248 | 33 | 98 | 2.0 | 3.0 | 0.00 | 0.02 | 0.02 | 96 | 1016.4 |
| 20260503080744 | 32 | 89 | 2.0 | 3.0 | 0.00 | 0.02 | 0.02 | 96 | 1016.5 |
| 20260503080242 | 32 | 101 | 2.0 | 2.0 | 0.00 | 0.02 | 0.02 | 96 | 1016.4 |
| 20260503072718 | 32 | 115 | 2.0 | 4.0 | 0.00 | 0.02 | 0.02 | 95 | 1016.5 |
| 20260503072215 | 32 | 107 | 3.0 | 3.0 | 0.00 | 0.02 | 0.02 | 95 | 1016.5 |
| 20260503071711 | 32 | 86 | 1.0 | 2.0 | 0.00 | 0.02 | 0.02 | 95 | 1016.5 |
| 20260503071208 | 33 | 86 | 2.0 | 2.0 | 0.00 | 0.02 | 0.02 | 95 | 1016.5 |
| 20260503070705 | 33 | 107 | 2.0 | 2.0 | 0.00 | 0.02 | 0.02 | 94 | 1016.5 |
| 20260503070203 | 33 | 108 | 3.0 | 3.0 | 0.00 | 0.02 | 0.02 | 94 | 1016.4 |
| 20260503060127 | 34 | 110 | 2.0 | 2.0 | 0.00 | 0.02 | 0.02 | 92 | 1016.7 |
| 20260503055119 | 35 | 118 | 2.0 | 3.0 | 0.00 | 0.02 | 0.02 | 92 | 1016.9 |
| 20260503054615 | 35 | 112 | 3.0 | 3.0 | 0.00 | 0.02 | 0.02 | 91 | 1017.0 |
| 20260503054112 | 35 | 124 | 2.0 | 3.0 | 0.00 | 0.02 | 0.02 | 91 | 1016.8 |
| 20260503053610 | 35 | 117 | 2.0 | 3.0 | 0.00 | 0.02 | 0.02 | 91 | 1017.0 |
| 20260503053108 | 36 | 120 | 2.0 | 2.0 | 0.00 | 0.02 | 0.02 | 91 | 1016.9 |
| 20260503052604 | 36 | 117 | 2.0 | 3.0 | 0.00 | 0.02 | 0.02 | 90 | 1016.9 |
| 20260503052100 | 36 | 113 | 2.0 | 3.0 | 0.00 | 0.02 | 0.02 | 90 | 1016.9 |
| 20260503051556 | 37 | 106 | 2.0 | 3.0 | 0.00 | 0.02 | 0.02 | 89 | 1017.1 |
| 20260503051054 | 37 | 92 | 2.0 | 3.0 | 0.00 | 0.02 | 0.02 | 89 | 1017.0 |
| 20260503050549 | 37 | 106 | 2.0 | 3.0 | 0.00 | 0.02 | 0.02 | 89 | 1017.1 |
| 20260503050047 | 38 | 106 | 2.0 | 3.0 | 0.00 | 0.02 | 0.02 | 89 | 1017.2 |
| 20260503045544 | 38 | 109 | 3.0 | 3.0 | 0.00 | 0.02 | 0.02 | 89 | 1017.1 |
| 20260503045041 | 38 | 102 | 2.0 | 3.0 | 0.00 | 0.02 | 0.02 | 89 | 1017.2 |
| 20260503044538 | 38 | 114 | 3.0 | 3.0 | 0.00 | 0.02 | 0.02 | 88 | 1017.1 |
| 20260503044036 | 38 | 120 | 2.0 | 3.0 | 0.00 | 0.02 | 0.02 | 89 | 1017.1 |
| 20260503043531 | 38 | 117 | 2.0 | 3.0 | 0.00 | 0.02 | 0.02 | 88 | 1017.2 |
| 20260503043028 | 38 | 117 | 2.0 | 3.0 | 0.00 | 0.02 | 0.02 | 88 | 1017.0 |
| 20260503042525 | 38 | 117 | 2.0 | 3.0 | 0.00 | 0.02 | 0.02 | 88 | 1017.1 |
| 20260503042021 | 38 | 99 | 2.0 | 3.0 | 0.00 | 0.02 | 0.02 | 88 | 1017.3 |
| 20260503041518 | 38 | 110 | 2.0 | 3.0 | 0.00 | 0.02 | 0.02 | 87 | 1017.0 |
| 20260503041016 | 38 | 116 | 2.0 | 3.0 | 0.00 | 0.02 | 0.02 | 87 | 1017.1 |
| 20260503040513 | 38 | 118 | 2.0 | 3.0 | 0.00 | 0.02 | 0.02 | 87 | 1017.2 |
| 20260503040011 | 38 | 110 | 2.0 | 4.0 | 0.00 | 0.02 | 0.02 | 87 | 1017.2 |
| 20260503035507 | 38 | 103 | 2.0 | 3.0 | 0.00 | 0.02 | 0.02 | 87 | 1017.1 |
| 20260503035005 | 38 | 101 | 3.0 | 4.0 | 0.00 | 0.02 | 0.02 | 87 | 1017.2 |
| 20260503034502 | 38 | 104 | 3.0 | 3.0 | 0.00 | 0.02 | 0.02 | 87 | 1017.2 |
| 20260503033959 | 38 | 104 | 2.0 | 3.0 | 0.00 | 0.02 | 0.02 | 87 | 1017.3 |
| 20260503033456 | 38 | 114 | 2.0 | 3.0 | 0.00 | 0.02 | 0.02 | 87 | 1017.3 |
| 20260503032954 | 38 | 103 | 2.0 | 3.0 | 0.00 | 0.02 | 0.02 | 87 | 1017.1 |
| 20260503032452 | 38 | 89 | 3.0 | 3.0 | 0.00 | 0.02 | 0.02 | 86 | 1017.3 |
| 20260503031949 | 38 | 86 | 2.0 | 3.0 | 0.00 | 0.02 | 0.02 | 86 | 1017.4 |
| 20260503031447 | 38 | 87 | 2.0 | 2.0 | 0.00 | 0.02 | 0.02 | 86 | 1017.3 |
| 20260503030943 | 38 | 87 | 2.0 | 3.0 | 0.00 | 0.02 | 0.02 | 86 | 1017.3 |
| 20260503030440 | 38 | 98 | 2.0 | 3.0 | 0.00 | 0.02 | 0.02 | 85 | 1017.4 |
| 20260503025937 | 38 | 109 | 2.0 | 2.0 | 0.00 | 0.02 | 0.02 | 85 | 1017.4 |
| 20260503025434 | 38 | 102 | 2.0 | 3.0 | 0.00 | 0.02 | 0.02 | 85 | 1017.4 |
| 20260503024932 | 38 | 103 | 2.0 | 3.0 | 0.00 | 0.02 | 0.02 | 84 | 1017.6 |
| 20260503024428 | 38 | 93 | 2.0 | 3.0 | 0.00 | 0.02 | 0.02 | 84 | 1017.6 |
| 20260503023925 | 38 | 95 | 2.0 | 3.0 | 0.00 | 0.02 | 0.02 | 84 | 1017.7 |
| 20260503023422 | 38 | 105 | 2.0 | 2.0 | 0.00 | 0.02 | 0.02 | 83 | 1017.7 |
| 20260503022919 | 38 | 103 | 2.0 | 2.0 | 0.00 | 0.02 | 0.02 | 83 | 1017.7 |
| 20260503022420 | 38 | 92 | 2.0 | 2.0 | 0.00 | 0.02 | 0.02 | 83 | 1017.7 |
| 20260503021915 | 38 | 95 | 2.0 | 2.0 | 0.00 | 0.02 | 0.02 | 83 | 1017.6 |
| 20260503021412 | 38 | 116 | 3.0 | 3.0 | 0.00 | 0.02 | 0.02 | 82 | 1017.8 |
| 20260503020909 | 38 | 101 | 2.0 | 2.0 | 0.00 | 0.02 | 0.02 | 81 | 1017.7 |
| 20260503020407 | 38 | 106 | 2.0 | 2.0 | 0.00 | 0.02 | 0.02 | 80 | 1017.7 |
| 20260503015903 | 39 | 103 | 2.0 | 2.0 | 0.00 | 0.02 | 0.02 | 80 | 1017.6 |
| 20260503015400 | 39 | 93 | 2.0 | 3.0 | 0.00 | 0.02 | 0.02 | 79 | 1017.8 |
| 20260503014856 | 39 | 111 | 3.0 | 3.0 | 0.00 | 0.02 | 0.02 | 79 | 1017.4 |
| 20260503014354 | 39 | 107 | 2.0 | 2.0 | 0.00 | 0.02 | 0.02 | 78 | 1017.7 |
| 20260503013851 | 39 | 113 | 2.0 | 2.0 | 0.00 | 0.02 | 0.02 | 77 | 1017.7 |
| 20260503013348 | 39 | 107 | 2.0 | 2.0 | 0.00 | 0.02 | 0.02 | 76 | 1017.5 |
| 20260503012845 | 39 | 110 | 2.0 | 2.0 | 0.00 | 0.02 | 0.02 | 77 | 1017.4 |
| 20260503012343 | 39 | 89 | 2.0 | 3.0 | 0.00 | 0.02 | 0.02 | 77 | 1017.7 |
| 20260503011840 | 39 | 112 | 2.0 | 3.0 | 0.00 | 0.02 | 0.02 | 75 | 1017.6 |
| 20260503011336 | 39 | 104 | 3.0 | 3.0 | 0.00 | 0.02 | 0.02 | 75 | 1017.6 |
| 20260503010833 | 39 | 105 | 3.0 | 3.0 | 0.00 | 0.02 | 0.02 | 74 | 1017.5 |
| 20260503010330 | 40 | 110 | 2.0 | 3.0 | 0.00 | 0.02 | 0.02 | 74 | 1017.4 |